This is the latest recevied weather packets stored in our database for station/object KC0SIQ-13. If no packets are shown the sender has not sent any weather packets the latest 10 day(s).
| Time | Temp. | Humidity | Pressure | Rain* | Wind** | Luminosity | Snow |
|---|---|---|---|---|---|---|---|
| 1778025144 | 0.56° C | 99% | 1011.8 hPa | 0 mm | - | 19 W/m² | - |
| 1778024841 | 0.56° C | 99% | 1011.8 hPa | 0 mm | - | 23 W/m² | - |
| 1778024538 | 0.56° C | 99% | 1011.8 hPa | 0 mm | - | 24 W/m² | - |
| 1778024234 | 0.56° C | 99% | 1011.7 hPa | 0 mm | - | 25 W/m² | - |
| 1778023932 | 0.56° C | 99% | 1011.9 hPa | 0 mm | - | 26 W/m² | - |
| 1778023629 | 0.56° C | 99% | 1011.9 hPa | 0 mm | - | 25 W/m² | - |
| 1778023327 | 0.56° C | 99% | 1011.8 hPa | 0 mm | - | 21 W/m² | - |
| 1778023023 | 0.56° C | 99% | 1012 hPa | 0 mm | - | 23 W/m² | - |
| 1778022723 | 0.56° C | 99% | 1011.9 hPa | 0 mm | - | 22 W/m² | - |
| 1778022420 | 0.56° C | 99% | 1011.9 hPa | 0 mm | - | 22 W/m² | - |
| 1778022117 | 0.56° C | 99% | 1011.8 hPa | 0 mm | - | 21 W/m² | - |
| 1778021813 | 0.56° C | 99% | 1011.8 hPa | 0 mm | - | 22 W/m² | - |
| 1778021509 | 0.56° C | 99% | 1011.9 hPa | 0 mm | - | 26 W/m² | - |
| 1778021205 | 0.56° C | 99% | 1011.8 hPa | 0 mm | - | 29 W/m² | - |
| 1778020904 | 0.56° C | 99% | 1011.9 hPa | 0 mm | - | 24 W/m² | - |
| 1778020601 | 0.56° C | 99% | 1011.8 hPa | 0 mm | - | 23 W/m² | - |
| 1778020296 | 0.56° C | 99% | 1011.9 hPa | 0 mm | - | 24 W/m² | - |
| 1778019993 | 0.56° C | 99% | 1011.7 hPa | 1.27 mm | - | 26 W/m² | - |
| 1778019689 | 0.56° C | 99% | 1011.7 hPa | 1.27 mm | - | 34 W/m² | - |
| 1778019386 | 0.56° C | 99% | 1011.8 hPa | 0 mm | - | 41 W/m² | - |
| 1778019083 | 0.56° C | 99% | 1011.4 hPa | 0 mm | - | 50 W/m² | - |
| 1778018780 | 0.56° C | 99% | 1011.6 hPa | 0 mm | - | 39 W/m² | - |
| 1778018478 | 1.11° C | 99% | 1011.8 hPa | 1.78 mm | - | 45 W/m² | - |
| 1778018175 | 0.56° C | 99% | 1011.6 hPa | 1.78 mm | - | 57 W/m² | - |
| 1778017873 | 0.56° C | 99% | 1011.9 hPa | 1.27 mm | - | 55 W/m² | - |
* Rain latest hour (hover to see other rain measurements)
** Current wind speed in m/s (hover to see current wind gust speed)